Regional Weather Roundup
Issued by NWS

Home | Current Version | Previous Version | Graphics & Text | Print | Product List | Glossary On
Versions: 1 2 3 4 5 6 7 8 9 10 11 12 13 14 15 16 17 18 19 20 21 22 23 24 25 26 27
000
ASUS45 KBOU 181407
RWRCO

WEATHER ROUNDUP FOR COLORADO
NATIONAL WEATHER SERVICE DENVER/BOULDER CO
700 AM MST WED JAN 18 2017

NOTE: "FAIR" INDICATES FEW OR NO CLOUDS BELOW 12000 FEET WITH NO
SIGNIFICANT WEATHER AND/OR OBSTRUCTIONS TO VISIBILITY.

COZ001>005-013-030-031-181500-
...NORTHWEST COLORADO...

CITY           SKY/WX    TMP DP  RH WIND       PRES   REMARKS
CRAIG          CLOUDY     1  -4  79 NW3       30.16F
HAYDEN         FAIR       9   3  78 SE9       30.11F WCI  -5
MEEKER         FAIR      10   6  84 CALM      30.12F
MOUNT WERNER   NOT AVBL
STEAMBOAT SPGS FAIR       2  -1  86 CALM      30.13F
WALDEN           N/A    N/A N/A N/A CALM      30.11F
$$

COZ006>008-011-181500-
...WEST CENTRAL VALLEYS...

CITY           SKY/WX    TMP DP  RH WIND       PRES   REMARKS
GRAND JUNCTION FAIR      26  25  96 CALM      30.14S
MONTROSE       MOCLDY    31  28  89 SE5       30.15F WCI  26
EAGLE          CLOUDY    19  18  93 CALM      30.20S
RIFLE          FAIR      25  22  88 SE5       30.15F WCI  19
DELTA          CLOUDY    32  29  90 NE6       30.16S WCI  26
NUCLA          FAIR      27  23  86 CALM      30.18S
$$

COZ017>023-064>068-181500-
...SOUTHWEST COLORADO...

CITY           SKY/WX    TMP DP  RH WIND       PRES   REMARKS
DURANGO        FAIR      27  24  89 CALM      30.11R
CORTEZ         FAIR      22  21  96 CALM      30.13S
PAGOSA SPRINGS CLOUDY    29  28  92 CALM      30.10F
TELLURIDE      FAIR      18  11  77 SE6       30.12F WCI   9
WOLF CREEK PAS CLOUDY    14  14 100 S9        30.13S WCI   2
$$

COZ009-010-012-014-032>034-037-058>063-181500-
...CENTRAL COLORADO...

CITY           SKY/WX    TMP DP  RH WIND       PRES   REMARKS
ASPEN          FAIR      15   7  70 S9        30.12F WCI   3
BUENA VISTA    FAIR      -3  -8  82 W6        30.09S WCI -15
COPPER MTN     FAIR      21  -8  27 MISG      30.09S
BERTHOUD PASS  NOT AVBL
COTTONWOOD PAS FAIR      27   1  33 NW6       30.04F WCI  20
GUNNISON       CLOUDY    22  16  78 N7        30.16S WCI  13
KREMMLING      CLOUDY    16  12  86 CALM      30.20F
LEADVILLE      FAIR       7   4  87 N12       30.07R WCI  -8
MONARCH PASS     N/A     12   9  85 MISG      30.18R
SALIDA         FAIR      17   8  68 N17       30.15S WCI   1
SUNLIGHT       FAIR     N/A N/A N/A MISG      30.13S
WILKERSON PASS FAIR      27 -24  10 N8        30.07S WCI  18
$$

COZ069>075-181500-
...SAN LUIS VALLEY/SANGRE DE CRISTO MOUNTAINS...

CITY           SKY/WX    TMP DP  RH WIND       PRES   REMARKS
ALAMOSA        CLOUDY    24  23  96 CALM      30.10S FOG
LA VETA PASS   CLOUDY    19  16  86 NE31G39   30.01S FOG     WCI   0
SAGUACHE       NOT AVBL
$$

COZ035-036-038>040-181500-
...NORTHERN COLORADO FRONT RANGE...

CITY           SKY/WX    TMP DP  RH WIND       PRES   REMARKS
DENVER INTL AP FAIR      25  13  60 SW12      29.94F WCI  14
DMNS CITY PARK   N/A     24  13  63 SE6       29.97S WCI  17
AURORA         PTCLDY    23  12  62 SW10      29.95F WCI  12
FRONT RANGE AP PTCLDY    28  16  59 SW7       29.95  WCI  21
ERIE MUNI ARPT FAIR      15  11  83 SW3       29.96F
BOULDER MUN AP FAIR      30  16  55 SW3       29.96S
CENTENNIAL     FAIR      23   9  55 SW5       29.95S WCI  17
BROOMFIELD     CLEAR     32   9  37 W5        29.96R WCI  27
FORT COLLINS   FAIR      19  16  86 S7        29.96R WCI  10
LONGMONT       FAIR      17  11  78 NW6       29.98F WCI   8
$$

COZ041-046-047-076>085-087-088-181500-
...PIKES PEAK/PALMER DIVIDE AND SOUTHERN FOOTHILLS...

CITY           SKY/WX    TMP DP  RH WIND       PRES   REMARKS
COLO. SPRINGS  FAIR      24  13  62 N8        29.96S WCI  15
A. F. ACADEMY  FAIR      19  10  68 N13       29.95S WCI   6
SCHRIEVER AFB  NOT AVBL
ELLICOTT       FAIR     N/A N/A N/A CALM      29.93S
FALCON         FAIR      23   8  52 NW6       29.96F WCI  16
FORT CARSON    CLEAR     30  12  47 N10       29.96S WCI  21
LIMON          FAIR      10   6  84 NW6       29.94S WCI   0
MONUMENT HILL  FAIR      21   7  53 SW7       29.98S WCI  13
TRINIDAD       FAIR      27  20  75 W17       29.96S WCI  14
$$

COZ042>045-048>051-090-091-181500-
...NORTHEAST COLORADO...

CITY           SKY/WX    TMP DP  RH WIND       PRES   REMARKS
GREELEY ARPT   FAIR      18  16  92 W5        29.96  WCI  11
AKRON          FAIR      23  16  74 W14       29.93S WCI  11
BURLINGTON     FAIR      26  22  84 W9        29.92F WCI  17
WRAY           NOT AVBL
STERLING       FAIR      14  12  92 S8        29.94S WCI   3
HOLYOKE        FAIR      19  16  86 W8        29.95R WCI   9
FORT MORGAN    FAIR      16  14  92 SW6       29.95R WCI   7
$$

COZ086-089-092>099-181500-
...SOUTHEAST COLORADO...

CITY           SKY/WX    TMP DP  RH WIND       PRES   REMARKS
PUEBLO         FAIR      25  21  85 SW7       29.95F WCI  17
LA JUNTA       FAIR      20  17  88 W5        29.96S WCI  13
LAMAR          FOG       21  19  92 W3        29.96R VSB 1
SPRINGFIELD      N/A     31  30  96 W3        29.94S
$$




USA.gov is the U.S. government's official web portal to all federal, state and local government web resources and services.